{"data":{"norad_id":68078,"epoch":"2026-09-19T14:24:40.125888Z","epoch_age_seconds":133469,"freshness":"FRESH","line1":"1 68078U 26042K   26262.60046442  .00022473  00000+0  67392-3 0  9994","line2":"2 68078  53.1619 353.7747 0000607 335.8507  24.2467 15.34416379 32054","mean_motion":15.34416379,"eccentricity":6.07e-5,"inclination_deg":53.1619,"raan_deg":353.7747,"arg_perigee_deg":335.8507,"mean_anomaly_deg":24.2467,"bstar":0.00067392,"rev_number":3205,"period_min":93.846756311248,"perigee_km":462.23932275281,"apogee_km":463.06979484805,"semimajor_km":6840.7915588004,"source":"CELESTRAK","updated_at":"2026-09-20T09:00:43.779115Z"}}